RH
52 52 48 45 43 42 43 44 44 44 44 44 44 44 43 44 45 44 44 45 47 48 50 48 45 51 54 46 41 42 44 46 49 53 57 59 60 63 69 72 72 72 71 67 65 63 64 65 63 60 58 54 51 47 44 42 41 43 46 46 47 47 47 47 46 46 47 48 49 52 55 56 56 56 56 57 58 57 59 64 66 70 73 73 74
55 53 50 47 44 42 43 42 42 42 43 44 45 46 45 46 45 43 43 42 44 45 45 44 40 41 43 39 36 34 33 34 36 40 47 56 60 61 65 70 71 71 71 70 69 66 64 64 64 63 60 57 54 51 49 47 44 41 43 46 47 47 48 48 47 46 46 47 48 50 54 57 58 57 57 58 60 60 60 64 65 68 73 74 75
53 53 50 48 45 43 42 40 40 42 43 46 48 48 47 47 45 42 41 40 41 42 41 40 36 33 30 28 27 27 26 27 28 29 33 41 50 55 59 66 71 70 70 70 70 69 66 64 64 66 65 61 57 53 51 51 51 47 43 44 47 47 47 46 46 47 47 47 46 47 50 54 57 58 58 58 60 62 63 65 66 69 72 74 75
48 49 49 47 44 41 40 38 40 43 44 46 47 47 46 44 43 39 37 37 37 38 37 33 29 25 23 22 22 22 22 23 25 26 26 28 35 42 48 57 67 70 70 70 71 71 68 63 61 63 63 63 61 59 56 52 51 50 47 45 45 46 48 47 45 44 46 48 47 46 47 50 54 56 58 58 59 62 65 67 67 69 72 73 74
44 44 44 43 41 40 39 39 42 43 43 44 44 44 43 42 43 39 34 31 30 31 31 27 24 23 22 22 22 21 21 21 21 22 23 23 24 28 33 43 57 68 72 74 75 72 68 65 60 58 61 63 62 59 56 53 49 48 48 49 46 43 45 47 47 45 44 46 48 47 47 48 50 53 56 57 57 60 63 66 68 68 70 72 73
41 38 37 38 38 39 40 42 44 44 43 42 42 42 42 44 42 37 32 27 25 25 24 22 22 24 24 23 22 21 20 20 19 17 18 19 21 21 22 28 39 54 67 76 80 74 69 69 64 60 59 59 58 55 54 53 51 49 47 47 47 44 43 45 46 47 46 45 47 49 49 48 49 51 53 55 57 58 60 63 66 66 67 70 72
39 35 34 35 36 38 41 44 44 43 42 41 42 41 43 45 39 33 30 25 22 23 22 22 23 24 22 21 21 21 20 19 18 17 16 15 17 19 19 20 24 32 46 62 75 77 71 67 65 63 61 57 53 53 55 53 52 52 48 46 46 45 47 48 45 46 47 45 46 49 51 50 49 50 52 53 54 56 57 59 62 64 65 67 70
36 36 36 37 38 40 41 43 44 41 39 39 40 40 41 41 35 31 29 24 22 24 24 24 24 24 22 21 21 22 22 22 22 22 21 18 16 17 18 18 20 23 29 41 59 73 73 64 59 61 61 57 53 52 54 54 53 52 51 49 47 45 49 51 47 46 47 46 44 46 50 53 52 51 52 53 53 54 55 56 58 61 62 63 66
37 37 38 39 43 46 43 42 41 37 36 37 37 35 34 34 32 31 28 23 22 24 24 24 24 25 23 21 21 23 25 25 26 27 27 26 25 23 21 19 19 20 23 29 39 56 68 66 57 56 59 58 58 57 57 58 58 55 54 52 49 47 49 52 51 51 49 46 45 44 47 51 52 53 53 54 54 53 53 53 55 57 60 60 62
39 38 39 44 48 47 44 44 40 33 32 33 32 29 27 28 29 29 28 25 24 25 24 23 23 25 24 22 22 23 24 26 27 28 29 30 30 29 27 23 20 19 20 23 27 36 51 59 56 52 53 56 59 59 58 59 60 59 57 54 53 53 52 53 53 53 51 47 46 44 44 47 50 51 52 52 53 53 53 52 52 54 56 59 60
38 40 43 48 49 46 44 42 35 29 26 25 24 23 24 25 25 27 30 30 28 26 23 21 24 26 24 23 25 24 25 29 30 29 29 29 28 28 28 28 25 22 21 20 22 25 33 44 51 51 51 55 58 56 55 55 56 60 61 58 58 57 56 55 54 54 52 49 47 45 44 44 46 49 50 50 51 52 52 52 51 51 52 55 58
38 43 45 47 46 44 40 33 27 24 22 20 19 20 23 25 24 26 29 30 27 23 22 22 27 30 26 24 25 26 29 32 30 29 29 28 28 27 27 28 27 26 25 23 22 23 27 35 45 52 55 61 62 59 58 58 60 65 66 64 61 59 57 57 58 58 56 52 48 46 45 44 43 45 47 48 48 48 49 51 51 50 51 52 54
37 41 40 38 37 35 30 25 22 21 20 18 17 17 19 22 23 24 24 24 23 21 21 23 28 31 28 26 25 26 30 31 28 28 28 29 29 27 26 26 27 28 28 28 27 27 29 34 40 47 54 61 65 66 65 64 64 66 67 65 61 59 58 57 58 61 63 62 55 48 47 48 46 44 44 46 46 46 46 47 48 49 50 50 51
31 31 28 26 27 25 22 20 18 16 16 16 18 17 18 20 20 21 21 20 20 21 21 22 26 28 26 26 27 28 30 29 27 27 27 28 28 28 26 25 27 29 30 30 30 30 31 33 34 37 42 49 58 67 72 72 68 66 67 65 61 59 59 59 59 60 63 67 64 55 49 50 49 47 46 45 45 45 45 44 44 46 47 48 50
26 25 22 21 21 21 19 17 14 13 14 16 19 19 19 20 20 19 19 20 20 21 23 24 24 24 23 23 26 28 28 28 28 28 27 27 29 29 29 29 28 29 29 29 29 30 31 32 32 33 34 37 42 52 64 72 73 70 69 67 65 65 63 62 62 62 62 62 64 61 55 51 51 51 48 47 46 45 45 44 44 43 44 46 47
24 22 20 20 20 19 18 16 14 14 15 16 18 21 22 22 21 20 20 21 22 23 24 24 23 23 22 23 26 29 30 31 31 33 31 30 31 30 29 28 28 28 28 27 27 27 29 30 31 32 32 33 34 38 46 57 65 69 70 69 68 70 70 66 64 64 63 60 62 63 60 56 56 54 49 48 48 46 45 45 45 44 43 44 46
21 20 21 21 20 19 17 16 16 16 17 18 21 23 24 22 22 22 22 22 23 24 24 24 23 22 21 23 28 32 36 35 33 34 34 34 33 31 30 27 26 27 28 28 29 29 29 30 30 30 31 32 33 35 38 42 48 55 64 68 68 69 71 69 67 65 64 63 64 66 64 62 61 58 51 46 46 45 45 45 44 45 44 44 45
22 22 22 22 21 20 18 17 18 18 19 20 23 24 25 24 23 24 24 23 23 23 23 23 23 23 22 25 29 33 35 34 33 34 33 33 32 31 30 29 28 29 30 32 32 31 31 31 31 30 29 29 30 32 34 36 38 41 49 58 63 64 64 63 63 64 66 68 69 70 67 62 61 59 55 50 45 43 44 45 44 44 44 45 44
25 25 23 23 22 20 18 19 21 21 20 22 24 25 26 26 24 24 24 23 23 23 23 23 24 24 25 27 29 30 31 30 30 31 32 32 32 31 30 29 29 30 31 33 34 33 32 30 30 29 28 28 27 27 29 31 34 35 38 44 50 56 59 60 60 61 64 69 72 72 67 62 61 61 57 54 50 44 43 46 46 44 44 44 44
29 28 26 24 22 19 19 20 23 23 23 23 24 25 26 25 24 24 24 24 24 23 24 26 28 29 29 29 29 28 26 27 26 26 29 31 32 31 30 29 28 29 29 31 32 33 32 30 28 28 27 27 27 27 26 27 29 31 33 36 38 43 49 54 58 59 61 66 72 73 69 64 63 62 58 57 56 51 46 44 42 41 43 44 44
31 31 29 25 22 21 20 20 23 23 23 23 23 24 24 24 24 24 24 24 24 23 26 29 31 32 31 29 28 26 25 26 25 24 26 28 29 29 28 29 30 30 29 28 28 30 30 30 29 27 26 27 27 27 27 28 28 29 31 33 35 37 38 42 48 53 58 63 68 73 73 68 65 62 60 60 61 58 53 48 43 40 40 43 43
33 31 30 27 24 22 20 20 22 21 20 21 22 22 22 23 23 23 23 23 22 24 27 31 33 33 31 29 28 27 28 27 27 28 28 28 28 28 28 29 31 31 31 29 27 27 27 27 27 27 26 26 27 28 28 28 29 29 31 33 35 37 38 38 40 43 49 55 62 67 71 71 67 64 63 62 61 60 57 53 50 45 42 43 43
36 33 31 30 27 24 22 22 21 19 18 19 20 20 21 22 22 21 22 22 23 25 28 32 35 34 32 32 31 30 29 29 29 30 30 30 29 28 29 30 30 30 31 31 29 26 25 25 25 25 24 24 24 26 27 27 28 29 31 32 34 36 37 39 39 39 40 45 52 58 64 66 66 65 65 65 62 61 60 57 55 52 48 46 44
38 34 31 30 29 26 24 23 21 19 19 19 19 19 20 22 22 22 22 24 25 26 29 33 35 35 34 34 33 30 28 27 28 29 29 30 30 29 29 30 30 30 30 31 30 29 26 25 25 24 23 22 22 22 24 26 26 28 29 32 33 34 35 36 38 39 39 39 42 48 55 60 61 62 64 66 65 63 62 60 58 56 54 50 46
38 35 31 29 29 28 27 26 23 21 21 20 19 19 20 23 25 25 26 28 29 29 30 33 34 34 34 32 32 30 29 29 29 30 30 31 31 31 31 31 31 32 33 33 32 31 30 28 27 26 25 24 23 23 23 24 26 27 28 29 29 29 30 29 30 33 36 38 39 41 47 53 57 58 60 63 65 64 63 61 59 57 57 55 51
34 33 32 29 29 29 29 28 25 23 21 20 20 20 22 24 27 29 30 32 33 32 32 32 33 32 32 32 33 33 32 32 32 34 35 35 35 34 35 34 34 35 36 36 36 35 33 31 29 28 27 26 25 25 25 26 27 28 27 26 25 25 26 26 26 26 28 32 35 38 41 46 52 56 59 61 64 64 63 62 59 56 55 56 56
32 33 34 33 30 29 30 29 26 23 21 20 20 22 23 25 27 30 31 32 32 31 31 31 31 31 31 32 33 34 34 34 35 37 38 39 39 39 38 37 36 36 38 40 40 38 37 34 32 30 28 27 27 28 29 29 28 29 28 26 24 24 24 25 25 24 24 25 28 32 36 40 45 51 56 61 64 65 64 63 63 58 53 54 56
32 33 36 35 32 32 31 28 25 23 21 19 21 23 25 26 26 28 29 30 31 30 30 31 31 31 32 33 35 36 37 38 39 41 41 42 43 43 42 40 39 38 40 41 41 39 38 35 33 31 29 27 28 30 31 31 29 28 27 25 24 24 23 22 23 24 23 22 23 26 30 34 39 45 52 58 63 66 64 62 63 62 57 53 54
31 32 34 35 33 33 32 28 25 23 21 20 22 24 25 25 26 27 28 30 33 33 33 33 32 33 35 37 38 38 40 42 43 44 45 46 47 46 45 45 43 41 41 42 39 37 36 34 33 34 32 30 30 31 31 29 28 26 25 24 23 22 22 21 22 23 23 22 21 22 24 28 33 38 45 53 61 66 66 62 60 61 60 56 53
30 31 32 32 33 34 33 29 26 24 22 21 22 23 23 25 27 27 27 28 30 32 33 33 34 35 36 37 38 39 42 44 46 47 49 51 50 48 47 46 44 41 40 40 37 34 34 34 33 35 35 34 33 33 32 29 27 24 23 23 22 22 21 21 21 21 22 22 21 21 21 23 27 32 38 45 54 63 66 64 60 58 60 58 54
33 32 31 31 34 37 37 32 28 27 25 22 22 22 24 26 28 27 27 27 28 30 32 34 35 35 36 37 37 39 42 46 48 50 50 49 47 46 45 43 41 40 41 42 41 37 36 37 38 39 39 38 38 37 35 33 29 26 25 24 23 23 22 21 22 21 22 22 22 21 21 21 23 26 31 37 45 55 62 64 62 58 59 59 57
39 36 32 32 35 39 40 35 30 29 27 25 24 24 25 27 28 28 29 29 30 32 33 35 35 35 35 36 37 39 41 43 44 44 44 43 42 41 41 41 41 44 48 51 49 41 37 41 43 44 44 44 44 43 40 36 33 30 29 28 28 27 25 25 24 24 24 23 23 23 21 21 21 22 26 31 37 45 55 61 62 59 58 58 58
49 46 39 35 37 42 43 38 32 31 30 28 27 27 27 29 30 31 31 32 33 34 34 35 35 35 36 37 37 37 37 36 36 37 38 40 40 40 40 42 45 50 55 57 54 46 41 44 47 45 45 46 47 47 43 38 34 31 30 30 30 30 29 27 26 26 25 25 25 25 24 23 21 21 23 26 30 36 46 55 60 60 58 56 57
56 55 49 42 40 45 47 42 36 35 34 32 31 31 31 32 33 34 34 35 35 35 35 36 36 37 38 38 36 34 34 34 35 35 36 37 38 39 40 45 51 55 57 55 54 52 49 49 50 47 46 48 49 48 45 39 35 33 32 31 31 30 30 29 28 27 26 26 25 25 25 25 24 23 22 23 25 29 36 46 55 60 59 57 56
61 59 54 48 45 48 50 45 40 39 37 36 34 33 34 35 35 35 35 35 37 37 37 38 38 39 38 36 35 36 37 38 37 37 36 35 35 37 41 48 54 56 56 55 54 57 56 52 49 47 49 51 50 47 45 40 36 35 35 34 34 32 32 32 31 29 29 30 29 28 27 26 25 24 23 23 24 25 28 36 46 55 59 58 57
62 60 58 56 52 52 53 50 46 42 39 37 35 34 34 35 35 35 36 37 39 40 41 40 39 38 38 37 37 38 39 39 38 38 37 37 37 38 43 49 52 53 54 54 56 59 59 53 48 47 48 49 47 45 44 39 35 36 38 38 38 37 36 36 35 34 33 33 33 32 31 29 27 25 24 23 23 24 26 29 36 47 55 59 58
60 57 61 62 58 57 58 55 51 45 40 37 34 34 35 37 38 38 40 41 42 43 43 41 39 39 40 41 40 41 41 40 40 40 40 41 41 42 45 48 49 51 52 53 55 56 56 53 49 46 44 44 45 45 43 40 38 40 42 42 40 40 39 38 38 37 35 34 34 33 33 32 30 27 26 25 24 23 25 26 31 38 48 56 59
60 59 62 63 60 59 60 58 55 47 40 37 36 37 39 41 42 42 43 44 45 45 44 41 41 43 44 44 44 44 44 44 44 45 44 45 46 46 47 48 49 51 53 53 53 53 52 52 50 45 42 44 45 45 43 43 45 46 45 43 41 40 40 39 39 39 37 35 34 34 33 32 32 30 28 27 25 24 23 25 28 33 41 51 57
58 60 62 59 57 58 59 61 57 47 39 38 39 42 44 44 45 45 45 45 44 44 43 42 43 44 45 45 44 43 43 44 46 46 46 47 48 48 49 50 51 52 52 53 53 52 53 54 51 46 45 48 48 46 45 47 49 50 49 46 40 39 41 41 40 39 39 38 37 37 37 35 34 32 30 28 27 25 24 24 26 30 36 45 53
61 60 59 56 54 56 59 60 55 47 41 40 42 45 46 47 49 49 46 43 41 40 40 41 42 42 42 41 39 38 39 42 44 44 43 44 45 48 50 51 50 49 50 52 53 54 55 53 50 48 50 52 51 47 45 47 51 54 53 48 42 40 42 43 42 40 41 41 40 39 40 40 38 35 32 29 28 28 26 24 25 28 33 40 49
68 61 59 58 56 56 59 58 54 49 44 43 45 47 48 50 52 52 47 42 38 37 38 39 39 38 38 36 34 33 35 39 43 43 42 39 39 43 48 49 49 48 47 49 53 57 57 54 50 52 54 54 52 48 48 51 53 54 51 45 41 41 42 41 41 42 44 43 41 41 42 43 43 39 35 32 30 29 29 26 25 27 31 37 46
73 64 61 62 61 60 60 59 56 51 47 47 49 50 51 53 55 54 50 45 40 38 38 38 37 37 37 37 34 32 33 36 38 39 40 39 36 39 45 49 48 47 47 49 54 58 58 54 53 56 58 57 54 53 54 55 53 50 48 45 41 40 41 39 39 43 48 46 43 41 41 44 47 45 40 36 33 31 31 29 26 27 30 35 43
79 71 65 64 64 63 61 60 58 55 52 52 55 55 56 58 59 58 54 50 45 43 40 39 39 41 41 40 38 34 32 34 35 34 37 40 35 35 42 48 49 47 49 51 56 59 59 56 57 59 60 58 56 57 59 56 52 51 50 49 45 42 44 45 42 43 50 52 48 42 39 43 49 49 44 39 35 33 33 31 28 28 30 33 40
82 80 74 67 63 64 64 62 62 60 58 58 60 59 60 62 64 62 59 55 51 47 43 41 41 43 43 43 40 36 32 34 36 37 38 40 36 34 41 49 51 51 52 54 58 60 59 58 60 62 62 60 56 57 59 57 54 54 52 50 51 51 52 53 50 46 50 57 55 46 40 42 48 51 47 42 38 35 34 33 30 30 31 33 38
80 84 82 72 66 66 65 64 66 65 63 64 64 64 64 66 68 67 64 61 57 50 45 43 43 44 44 41 39 37 34 35 38 40 42 42 39 37 44 52 54 55 56 56 59 60 61 62 64 64 63 60 57 57 58 58 57 56 56 58 61 61 59 58 57 53 53 59 60 52 44 45 50 52 49 45 42 38 35 34 32 31 33 35 37
76 79 79 74 71 71 69 68 70 69 67 68 69 68 69 71 71 70 68 66 60 51 44 43 45 45 42 38 36 36 35 37 40 42 43 44 41 40 47 55 58 58 59 58 59 63 67 67 64 61 59 58 58 58 57 59 61 62 66 69 69 67 65 64 62 58 58 63 67 62 52 50 54 54 50 49 48 42 38 36 33 33 36 37 38
74 76 76 75 74 74 74 72 71 69 69 71 72 70 72 75 75 73 72 70 63 52 44 43 45 43 39 36 35 35 36 39 41 42 42 42 40 42 50 58 62 64 62 59 59 63 64 62 58 56 55 55 57 58 59 65 68 69 72 74 73 71 71 69 66 63 63 68 75 72 60 55 58 57 52 52 52 46 41 37 34 34 36 38 40
75 76 75 72 70 73 75 74 73 71 71 73 73 73 77 80 80 79 77 73 64 53 47 46 44 40 36 34 34 35 37 41 42 43 42 40 39 44 53 62 67 68 64 61 61 61 60 59 57 55 55 55 57 60 64 68 68 67 70 74 76 77 76 73 70 67 67 71 79 80 69 60 61 61 57 57 56 50 44 40 36 34 35 38 42
75 76 73 68 69 76 80 79 79 77 76 76 76 77 81 84 85 84 81 74 63 54 50 49 45 40 36 34 34 36 39 42 43 43 41 39 42 49 58 66 69 68 64 62 63 63 61 60 58 54 54 57 60 61 63 64 65 67 73 78 80 80 79 77 74 71 72 77 83 83 73 65 65 65 62 61 59 53 47 42 38 36 36 39 43
73 72 70 69 75 82 85 86 86 84 82 80 78 80 85 86 88 88 82 71 60 53 50 49 46 40 37 36 36 38 42 44 43 41 40 43 52 60 65 69 68 63 62 63 64 62 60 59 56 55 58 62 62 62 61 62 65 70 78 84 85 84 83 79 76 77 79 83 88 84 74 70 70 70 67 65 61 55 50 44 40 38 37 40 46
67 67 69 73 79 85 88 88 86 85 85 84 83 86 90 90 90 86 77 65 56 51 50 49 44 40 38 38 39 41 44 45 43 42 43 47 56 64 67 66 63 60 61 63 62 59 58 58 58 60 64 65 63 61 58 60 64 69 77 85 88 87 84 79 79 84 83 84 89 87 78 75 76 74 72 69 62 57 52 45 40 39 41 44 48